This demonstration page uses our WeatherBlox Daily Observations layout. Learn more.

36.17497, -115.13722

Hourly Observations for June 28, 2020

Temp ( °F °C ) Dew Point ( °F °C ) Humidity (%) Winds ( mph kmh ) Pressure ( in mb ) Visibility ( mi km ) Precip ( " mm )
12:53 am 00:53 Clear 95 35 50 10 22 22 S 13 20 29.55 1001 10 16.0934 0 0
1:53 am 01:53 Clear 93 33.9 50 10 23 23 S 16 26 29.53 1000 10 16.0934 0 0
2:53 am 02:53 Clear 92 33.3 50 10 24 24 S 13 20 29.53 1000 10 16.0934 0 0
3:53 am 03:53 Clear 90 32.2 47 8.3 23 23 S 15 24 29.52 1000 10 16.0934 0 0
4:53 am 04:53 Clear 89 31.7 49 9.4 25 25 S 18 30 29.52 1000 10 16.0934 0 0
5:53 am 05:53 Sunny 89 31.7 48 8.9 24 24 SSE 13 20 29.54 1000 10 16.0934 0 0
6:53 am 06:53 Sunny 89 31.7 47 8.3 23 23 S 20 31 29.53 1000 10 16.0934 0 0
7:53 am 07:53 Sunny 91 32.8 44 6.7 20 20 S 26 43 29.52 1000 10 16.0934 0 0
8:53 am 08:53 Sunny 94 34.4 41 5 16 16 S 20 31 29.51 999 10 16.0934 0 0
9:53 am 09:53 Sunny 95 35 42 5.6 16 16 S 21 33 29.5 999 10 16.0934 0 0
10:53 am 10:53 Sunny 96 35.6 38 3.3 13 13 SSW 28 44 29.49 999 10 16.0934 0 0
11:53 am 11:53 Sunny 99 37.2 35 1.7 11 11 SSW 21 33 29.47 998 10 16.0934 0 0
12:53 pm 12:53 Sunny 101 38.3 27 -2.8 7 7 SSW 30 48 29.44 997 10 16.0934 0 0
1:53 pm 13:53 Sunny 100 37.8 24 -4.4 7 7 SSW 29 46 29.42 996 10 16.0934 0 0
2:53 pm 14:53 Sunny 104 40 20 -6.7 5 5 SSW 31 50 29.39 995 10 16.0934 0 0
3:53 pm 15:53 Sunny 101 38.3 22 -5.6 6 6 SSW 35 56 29.36 994 10 16.0934 0 0
4:53 pm 16:53 Sunny 101 38.3 30 -1.1 8 8 SSW 36 57 29.35 994 10 16.0934 0 0
5:53 pm 17:53 Sunny 96 35.6 34 1.1 11 11 S 29 46 29.31 993 10 16.0934 0 0
6:53 pm 18:53 Sunny 95 35 28 -2.2 9 9 SSW 28 44 29.34 994 10 16.0934 0 0
7:53 pm 19:53 Sunny 92 33.3 23 -5 8 8 SSW 29 46 29.34 994 10 16.0934 0 0
8:53 pm 20:53 Clear 89 31.7 25 -3.9 10 10 WSW 25 41 29.35 994 10 16.0934 0 0
9:53 pm 21:53 Clear 86 30 28 -2.2 12 12 VRB 6 9 29.4 996 10 16.0934 0 0
10:29 pm 22:29 Clear 85 29.4 31 -0.6 14 14 S 20 31 29.3 992 10 16.0934 0 0
10:53 pm 22:53 Clear 84 28.9 31 -0.6 15 15 SSW 23 37 29.4 996 10 16.0934 0 0
11:53 pm 23:53 Clear 83 28.3 29 -1.7 14 14 SSW 26 43 29.41 996 10 16.0934 0 0

Powered by AerisWeather